Theta_e
305 299 296 298 299 297 294 292 291 293 298 296 295 296 298 301 300 300 302 302 303 305 309 310 310 311 310 311 320 323 324 326 326 323 324 325 325 327 328 329 330 329 328 326
298 294 297 301 301 300 298 295 292 295 298 297 294 295 298 299 301 302 303 303 304 305 305 306 308 309 309 309 312 318 323 325 325 325 325 326 326 327 328 329 329 329 329 327
293 293 299 297 295 295 295 294 292 293 295 296 293 293 295 298 300 300 301 303 303 303 303 304 305 306 307 307 308 313 320 323 325 326 325 324 324 323 324 326 326 328 328 328
296 297 295 293 293 294 291 294 294 293 292 287 292 283 290 292 294 295 297 298 299 300 299 299 301 302 304 304 305 308 315 322 324 326 325 323 322 321 324 325 326 327 328 327
290 293 295 292 293 296 291 295 293 291 289 288 288 287 287 292 291 294 298 299 298 296 296 296 297 298 299 300 303 307 312 315 321 323 325 323 322 324 324 324 324 325 326 327
290 295 295 294 295 297 295 294 294 293 292 284 287 286 287 288 291 293 294 296 295 294 294 295 296 298 297 298 300 300 301 301 303 311 317 321 321 321 321 321 321 322 323 323
292 293 294 296 294 296 295 292 284 282 282 280 286 286 289 292 295 293 294 294 292 292 292 293 293 294 295 294 295 297 297 297 300 301 302 304 306 310 312 315 319 322 323 323
283 282 292 296 294 292 293 291 284 277 276 278 284 283 287 292 295 295 295 291 291 290 291 291 292 292 293 292 292 293 293 294 296 298 298 299 300 302 304 304 306 307 309 312
281 280 291 293 295 294 290 288 292 282 279 278 281 284 290 290 289 292 290 289 288 288 289 289 290 291 290 290 289 290 290 291 293 294 296 295 296 297 297 299 299 300 301 302
285 276 287 290 295 294 292 293 285 286 277 275 279 280 283 285 288 288 288 287 286 287 287 287 287 288 290 289 288 288 288 289 290 291 293 293 293 294 294 295 294 294 295 296
287 284 286 290 289 289 291 288 289 288 285 279 277 279 286 288 288 286 285 286 285 285 285 285 285 286 287 289 286 285 285 286 288 289 290 290 290 290 291 290 289 289 290 291
289 284 279 285 292 293 292 290 290 283 280 282 279 281 292 290 289 287 286 286 286 286 286 285 284 284 285 287 284 283 283 284 285 287 288 286 287 288 286 285 285 286 286 288
291 285 279 280 285 291 289 291 291 289 284 279 280 280 292 291 288 289 287 286 286 286 285 284 283 281 282 284 282 281 282 282 283 285 285 283 284 283 281 282 282 283 283 284
295 284 283 278 280 285 284 287 290 288 283 282 284 285 289 288 287 287 288 288 287 285 284 283 282 281 282 283 280 280 280 281 281 283 281 280 281 279 279 280 280 280 281 282
291 283 283 284 284 284 285 286 288 287 287 282 285 283 289 290 289 289 291 290 287 285 284 283 281 281 281 280 279 279 279 279 280 281 278 277 277 277 278 278 278 278 279 279
292 284 284 281 284 285 283 284 286 288 288 287 287 284 291 294 293 293 293 290 287 283 281 280 279 279 279 277 277 277 277 277 279 276 276 276 276 276 276 276 276 276 277 277
289 285 282 279 282 283 280 284 285 286 289 288 284 289 290 290 292 294 292 288 285 282 280 279 278 277 276 275 275 274 275 276 275 275 274 274 274 274 274 274 274 274 274 274
287 287 284 279 281 275 284 284 289 287 288 289 290 287 290 292 292 288 288 284 282 280 278 277 276 275 274 274 274 274 275 274 273 273 273 273 273 272 273 273 273 273 273 273
291 288 283 279 275 278 282 281 284 284 285 290 290 286 281 278 280 277 282 283 281 278 277 275 274 273 272 272 272 273 273 273 272 272 272 272 272 271 271 272 271 272 272 273
289 289 284 276 276 274 284 284 287 289 281 288 291 285 277 281 282 283 277 276 275 275 274 273 272 272 270 270 271 272 271 271 270 270 270 271 271 270 271 271 271 272 272 273
284 285 282 282 275 275 281 281 286 278 281 285 289 284 280 283 280 276 274 274 275 273 272 271 270 269 268 270 270 270 269 268 269 269 269 269 269 269 271 270 270 271 271 272
283 281 281 283 278 275 279 280 283 282 276 278 280 280 280 272 273 272 272 272 271 270 270 270 268 268 268 269 269 268 267 267 267 267 267 267 268 269 270 269 270 270 271 271
280 285 282 283 282 277 276 275 276 276 276 275 275 275 274 272 271 270 269 269 269 269 268 268 268 267 267 266 267 266 265 265 265 264 264 266 267 268 269 268 268 269 269 269
282 281 280 281 278 274 273 271 272 273 273 273 274 274 273 270 269 268 268 267 267 267 266 266 266 265 264 264 265 264 264 263 261 261 264 265 265 266 267 267 268 268 268 269
281 281 277 278 272 272 272 272 272 271 271 269 269 270 270 269 267 268 267 267 266 266 265 265 264 263 262 263 262 262 261 261 260 262 263 263 264 264 264 265 266 267 269 271
280 281 281 284 277 279 277 273 272 270 269 269 268 267 268 268 267 267 265 265 265 264 263 263 262 262 260 260 260 259 257 258 257 260 261 261 262 262 263 263 263 267 269 270
Wind_Speed
5 5 14 15 10 3 3 4 6 1 3 1 7 14 11 11 5 9 11 10 11 15 19 14 13 9 9 9 11 13 11 13 9 7 7 8 11 10 9 9 11 13 12 13
4 18 8 2 10 12 10 7 5 3 2 2 6 20 9 6 9 12 13 12 16 17 11 10 13 12 10 13 11 11 12 11 11 8 6 5 5 7 8 8 11 13 12 12
15 0 14 9 5 8 6 13 5 5 0 3 6 27 14 8 6 7 9 15 13 11 14 14 14 13 8 9 9 9 10 10 10 13 6 3 2 0 3 7 7 8 12 11
10 8 8 4 14 7 10 6 6 4 2 7 3 20 13 6 11 4 11 7 10 10 7 10 14 12 9 9 8 6 5 6 7 8 8 11 8 8 6 6 5 7 11 12
5 9 13 8 7 9 7 7 8 5 3 3 5 8 3 9 4 8 13 7 7 6 5 8 11 11 12 13 12 10 9 9 3 5 7 5 7 4 2 2 5 6 7 10
3 2 5 8 5 12 8 5 3 2 3 11 8 10 18 3 6 2 2 1 4 5 9 11 11 13 13 14 14 14 14 15 14 12 8 4 2 2 2 2 2 3 3 4
5 6 2 3 7 3 7 8 4 5 8 7 6 10 22 9 13 7 10 3 7 8 10 11 14 14 14 16 16 14 16 17 15 15 16 14 13 12 10 8 5 5 3 2
14 7 11 6 7 7 12 9 5 6 5 2 2 10 8 2 4 6 6 11 10 10 9 11 12 11 13 15 16 16 16 17 16 16 15 14 14 9 8 10 8 7 7 8
9 7 2 2 4 10 6 10 9 3 4 2 6 10 14 5 6 7 8 11 10 9 10 11 11 12 12 13 15 15 15 15 16 15 12 14 13 13 11 12 10 8 9 10
7 2 2 4 3 1 7 8 4 6 6 7 5 5 9 8 10 7 7 7 9 9 10 9 9 10 9 11 10 12 13 13 13 13 12 11 12 13 12 11 13 13 11 12
6 5 4 6 9 14 6 6 2 1 4 5 4 7 6 6 5 10 6 5 5 6 7 7 7 6 7 8 11 12 13 13 12 12 11 12 12 12 12 11 12 13 12 13
8 5 6 9 5 7 8 12 11 7 6 4 2 8 5 6 9 16 17 12 8 7 4 6 7 6 8 8 10 11 11 11 12 11 11 13 13 13 13 13 13 14 15 14
14 7 5 2 3 2 9 12 11 4 2 7 6 7 5 5 7 7 15 11 10 9 8 6 6 7 7 6 9 10 11 12 11 11 12 12 13 14 15 14 14 14 14 14
19 4 16 14 5 8 9 9 14 12 5 13 12 12 10 9 10 8 10 10 9 7 8 6 6 7 7 7 10 10 11 11 12 11 13 13 13 14 13 13 13 14 14 14
12 8 7 9 4 4 5 14 17 19 26 12 22 11 15 15 15 18 13 10 11 9 7 6 6 5 6 8 10 11 12 12 11 9 11 12 12 12 11 12 13 12 12 12
5 4 8 9 7 6 4 6 16 23 23 14 20 11 5 11 11 15 14 14 11 10 8 7 7 8 10 10 10 10 10 10 10 10 9 10 12 12 12 12 13 13 12 12
11 7 6 17 7 7 9 22 15 14 19 14 17 28 8 11 16 20 17 14 13 11 8 8 7 7 7 8 8 8 7 8 9 10 10 12 12 12 12 12 13 13 14 14
14 12 3 6 7 14 15 2 20 22 17 20 19 5 13 14 11 5 6 11 13 11 9 8 6 5 5 6 7 6 8 8 9 10 12 12 13 13 13 13 14 14 13 14
14 13 6 7 5 5 9 7 9 13 21 23 25 9 4 10 7 2 6 8 10 11 8 8 6 6 6 6 6 6 6 7 9 10 11 11 12 12 12 14 15 13 13 13
12 12 12 3 7 13 27 10 8 8 20 17 22 18 15 14 11 8 13 13 12 10 8 7 6 7 6 6 6 5 8 9 10 11 12 11 11 11 12 12 13 12 11 11
16 14 19 14 6 10 5 7 5 11 11 7 16 16 22 15 3 11 16 11 11 10 9 8 7 6 6 6 6 7 7 9 10 10 10 10 11 11 11 11 10 10 11 12
12 9 12 13 8 18 6 4 20 6 2 4 6 9 13 13 14 15 13 13 12 11 9 7 6 7 6 7 6 6 7 8 9 9 9 9 9 8 9 10 10 10 10 10
8 11 10 10 10 1 3 1 3 2 4 5 7 9 17 17 11 13 12 11 10 10 8 6 6 7 7 6 7 6 7 8 9 9 8 6 8 8 8 8 9 8 9 9
5 2 4 4 5 4 3 1 1 1 3 5 8 14 15 14 15 13 11 10 9 8 8 7 7 6 6 6 6 6 7 8 7 7 6 6 7 8 7 7 7 7 7 8
3 1 6 5 1 2 8 7 6 7 10 11 8 7 13 17 13 12 11 10 9 8 7 6 6 6 5 4 5 6 7 7 7 6 6 6 5 6 7 8 7 8 8 12
7 9 9 11 5 2 0 14 13 12 9 9 14 10 9 11 13 12 10 9 8 8 7 7 5 5 4 3 2 4 5 5 5 5 5 6 6 6 7 7 7 13 17 19
Wind_Direction
197 205 202 204 221 211 160 197 216 254 204 210 245 260 257 271 285 275 276 269 263 261 268 281 280 262 253 252 239 230 220 221 194 195 205 219 221 221 227 229 222 216 214 210
179 227 211 105 195 201 216 222 205 219 265 212 295 279 255 230 249 247 257 267 264 273 280 286 284 277 253 260 245 241 220 217 203 205 204 205 196 221 218 216 217 216 217 214
211 136 177 191 203 199 211 225 167 212 11 250 325 285 270 232 226 237 242 242 264 273 292 296 297 299 286 271 262 246 235 223 207 207 193 183 177 276 205 223 224 220 217 215
221 210 162 162 211 170 220 159 159 140 103 265 152 287 273 254 246 232 257 280 279 285 323 315 316 316 332 335 322 290 260 230 218 213 207 207 211 222 228 222 217 215 205 213
203 183 184 201 199 184 236 154 172 150 179 288 208 275 314 83 325 277 264 268 277 347 346 7 13 21 14 9 14 22 36 30 322 197 211 209 223 245 253 228 232 231 226 224
214 275 184 185 159 181 152 108 102 123 191 241 205 201 277 207 193 277 304 159 36 50 40 36 29 30 27 21 26 29 40 40 35 40 37 39 18 327 324 300 276 263 240 227
152 206 177 135 145 89 164 132 196 208 198 256 206 190 252 312 301 223 243 206 83 63 59 48 39 31 30 28 27 29 32 37 35 43 41 35 35 36 35 17 6 346 310 264
206 206 193 173 197 170 189 184 191 215 199 230 53 233 252 125 316 355 5 96 91 71 58 55 51 42 35 34 30 32 32 33 29 33 37 35 32 34 30 27 24 20 10 355
178 236 59 206 165 153 174 213 211 331 98 254 223 270 280 53 44 10 111 100 91 80 66 55 43 44 42 39 35 33 33 34 31 30 32 33 28 30 22 25 20 11 10 357
194 108 227 182 163 172 170 158 154 189 223 229 246 259 238 355 326 22 65 77 81 77 74 62 54 43 43 41 37 34 33 34 28 29 30 30 24 25 21 18 18 6 358 359
144 125 179 139 203 189 179 196 142 125 190 216 225 245 200 223 236 113 79 84 93 96 97 90 72 58 48 51 39 33 28 28 23 24 25 29 23 23 24 17 10 0 353 354
179 141 176 199 176 193 215 209 185 218 195 218 218 272 177 225 162 144 152 162 166 137 111 99 91 65 48 46 45 36 28 22 16 22 28 24 18 17 16 12 5 359 356 353
173 200 166 250 213 193 206 213 213 187 94 208 219 253 181 178 172 191 153 157 151 147 132 107 86 67 57 45 43 35 29 21 13 13 29 23 19 12 6 1 358 357 352 351
168 178 209 217 205 141 198 197 208 194 219 232 231 246 214 203 193 165 163 164 154 146 131 118 83 67 45 46 39 32 29 23 15 12 8 17 14 3 359 351 349 353 351 349
175 221 207 234 164 165 208 202 201 207 222 207 243 221 236 202 186 184 171 166 155 153 131 121 105 82 56 50 41 27 21 16 8 29 14 360 356 353 351 350 348 347 349 347
200 230 178 237 207 197 215 206 208 214 229 228 246 255 150 187 168 179 180 170 167 158 144 126 95 59 41 28 26 15 16 17 3 359 11 0 357 349 354 353 346 348 349 347
190 179 176 232 169 169 234 232 208 218 224 211 219 237 141 171 184 191 184 177 163 154 141 99 87 67 45 29 22 13 3 4 15 359 360 0 356 351 349 349 349 352 349 348
190 191 186 232 140 218 235 252 213 211 223 218 236 225 182 189 181 111 148 146 153 151 141 122 100 86 60 36 22 1 20 14 11 358 1 359 356 349 350 352 356 351 350 351
201 182 212 224 214 312 294 195 148 172 242 219 222 188 128 111 100 194 144 151 146 139 118 106 94 80 64 36 6 17 21 17 13 7 357 356 352 345 346 356 353 351 346 345
216 208 205 137 220 214 240 170 152 96 262 179 201 185 153 147 195 191 160 136 129 118 111 112 93 83 68 29 12 25 27 19 11 360 353 348 349 349 348 348 349 342 343 346
199 202 216 216 225 277 209 149 143 164 258 185 197 170 161 186 224 128 131 128 129 126 120 105 90 83 57 27 16 36 27 17 356 348 341 343 343 339 345 335 334 337 340 341
190 197 205 212 207 251 133 59 178 194 24 129 118 151 148 115 121 127 126 131 133 126 109 100 101 87 62 39 32 38 27 359 349 342 332 329 328 336 337 336 342 345 343 340
228 196 200 197 218 50 194 354 56 78 148 173 127 132 137 137 141 133 131 131 131 126 119 105 102 91 66 40 39 31 4 354 344 334 315 316 330 340 341 345 347 344 352 345
245 183 172 98 214 220 237 183 296 3 130 124 126 135 139 135 139 131 129 132 133 130 117 107 104 95 73 40 36 15 354 345 329 301 313 337 348 344 345 346 351 347 348 336
162 215 167 273 230 329 243 210 156 117 114 107 83 110 130 131 134 139 136 132 127 120 112 109 105 97 75 36 27 7 349 332 319 323 338 344 345 348 349 352 347 342 345 347
186 172 203 235 163 95 144 163 156 149 140 126 120 109 104 124 129 126 121 124 129 126 127 112 101 97 70 27 359 338 312 319 327 350 351 351 352 353 350 346 336 347 351 346